THAICOM 8

Last updated on Tue Sep 22 2026 00:03:13 GMT+0000 (Coordinated Universal Time)

1 41552U 16031A 26264.43334376 -.00000125 00000+0 00000+0 0 9998 2 41552 0.0813 35.6630 0000900 80.6526 118.4993 1.00270622 37689
UTC large
Height (km)
Speed (km/s)
/
Latitude / Longitude
Inclination (degrees)
Orbital Period (minutes)
Azimuth
Elevation
Range (km)
Doppler Factor

Next 0 passes for location: London (51.5072 / 0.1276)

No passes found over London.
THAICOM 8